GFSWCAN_500_spd_159.txt.gz
Wind_Speed
45 43 40 38 35 34 34 32 31 32 29 27 25 22 21 18 15 20 24 26 29 32 28 31 35 36 42 45 52 52 51 51 55 56 66 69 75 77 77 74 72 70 69 67 62 58 56 48 46 41 32 32 26 28
39 42 40 35 34 34 33 33 33 35 32 25 23 23 18 18 19 17 17 22 24 28 25 27 29 32 36 41 46 54 53 53 50 50 56 61 68 74 76 75 73 74 72 69 66 59 52 42 38 35 28 25 28 22
39 35 33 30 38 39 34 35 35 35 29 20 17 18 17 18 21 17 15 19 21 23 22 26 29 30 29 33 39 44 51 50 48 48 47 51 60 66 71 71 70 72 70 70 67 62 54 45 36 31 28 25 22 19
42 39 35 38 37 35 36 38 38 36 35 21 17 9 4 7 8 13 17 16 18 18 17 23 27 26 26 27 31 38 47 49 47 44 43 44 49 57 62 68 71 72 69 67 66 63 55 49 43 37 35 32 29 26
42 42 39 38 36 37 37 36 37 33 31 29 20 12 3 5 3 2 6 11 11 12 15 18 19 22 21 24 26 33 42 47 45 40 43 43 42 48 55 64 68 66 68 66 66 62 56 50 48 46 43 42 34 32
45 40 37 34 35 40 47 42 36 32 28 26 25 22 21 19 19 18 17 16 15 13 12 13 13 13 16 20 25 27 34 43 46 33 39 39 39 43 48 56 60 62 62 63 62 63 59 55 51 51 51 51 49 43
47 43 41 39 39 37 40 41 41 37 30 25 23 22 21 20 19 17 16 13 11 8 8 8 9 11 15 17 19 24 34 43 52 38 39 37 38 40 47 48 51 53 54 55 51 43 42 48 51 55 54 51 47 43
40 39 40 39 39 41 40 39 38 44 36 29 24 21 20 19 17 15 13 13 14 18 17 14 15 12 11 13 17 24 32 40 45 42 39 41 41 38 42 39 40 42 45 43 43 41 37 40 41 44 46 48 46 41
37 38 40 41 41 37 34 35 34 36 35 24 21 23 26 28 25 23 22 15 16 14 16 16 8 12 10 14 14 17 21 43 54 43 40 41 35 35 36 36 37 39 36 32 33 34 34 36 36 36 37 36 35 34
44 42 43 43 41 44 39 34 30 26 25 20 17 29 33 31 31 25 20 16 10 6 12 13 18 10 8 17 9 5 12 27 42 39 19 36 42 42 40 41 40 38 36 36 35 35 37 38 35 33 34 32 31 29
38 42 42 37 36 37 39 38 36 32 23 20 23 21 28 31 31 23 18 13 11 17 13 13 16 13 18 13 10 14 16 21 35 25 23 39 40 43 46 47 45 45 42 40 40 37 37 37 37 36 32 30 28 24
35 36 38 36 35 36 36 35 37 37 34 30 31 25 22 25 25 22 13 9 11 17 18 18 9 27 25 16 18 24 16 24 21 29 43 47 38 50 44 42 40 47 46 44 41 38 37 33 29 25 25 23 22 22
33 33 35 29 30 31 34 35 34 37 32 30 37 41 36 34 28 18 14 16 14 11 19 15 16 16 14 15 15 11 17 12 13 40 44 43 42 50 47 41 43 38 33 35 36 30 27 26 24 23 22 22 25 27
28 30 30 29 30 30 32 29 27 29 29 24 27 29 29 34 25 25 21 19 17 16 21 18 6 15 22 23 29 25 26 26 37 46 51 53 37 45 55 47 42 39 29 33 33 33 30 25 24 26 26 26 29 32
27 26 26 26 27 28 29 26 24 25 22 23 28 22 17 24 26 21 22 17 18 16 16 16 25 25 20 28 22 32 30 27 26 32 33 26 31 34 36 38 36 33 29 28 21 20 21 24 26 28 30 29 27 26
38 33 25 23 23 24 25 25 27 26 21 27 30 27 24 22 20 19 19 16 19 21 18 19 21 19 20 19 23 29 30 28 28 27 23 19 18 26 37 38 37 34 31 28 29 28 26 24 22 23 24 24 24 23
37 38 40 35 25 20 22 24 24 23 24 26 27 29 27 26 22 18 15 11 7 8 12 16 16 12 16 20 26 25 24 22 26 22 22 21 20 19 20 23 29 31 32 35 32 26 23 21 19 19 19 19 21 24
34 35 40 38 37 29 20 22 21 22 23 23 22 23 24 24 24 26 26 24 21 16 15 13 16 16 14 16 13 16 23 24 24 20 16 14 13 14 15 15 18 21 23 23 24 24 24 23 22 23 24 24 24 24
28 31 34 37 38 36 33 31 28 29 28 26 24 23 23 22 25 27 28 21 23 23 22 21 20 20 17 13 14 13 12 10 11 10 8 9 12 10 9 10 11 11 11 14 14 15 17 18 19 20 20 20 20 20
24 24 27 30 25 29 29 26 27 31 30 34 34 33 30 31 31 32 34 31 25 22 23 25 24 21 18 16 16 14 12 10 10 10 10 10 10 10 11 11 12 11 12 13 13 16 17 17 18 18 18 17 16 15
20 20 23 26 25 21 23 25 25 27 26 28 28 27 27 24 23 25 27 27 20 22 24 23 21 18 16 15 11 11 10 6 4 3 2 3 6 6 7 10 11 12 14 14 14 15 14 12 12 13 13 13 13 14
18 18 19 21 22 20 23 22 22 23 25 28 28 28 26 24 24 25 26 22 25 29 28 26 21 17 20 19 14 7 8 8 6 3 1 3 5 7 8 9 11 12 12 11 12 14 12 11 11 13 15 15 14 14
21 20 20 18 17 18 18 20 20 21 20 21 22 21 21 21 21 20 18 22 25 27 28 27 25 23 20 17 16 15 12 10 6 3 1 2 3 5 8 7 8 10 13 16 15 17 16 17 18 17 15 16 16 16
18 18 17 15 15 15 14 16 16 15 16 16 16 16 17 19 20 17 17 19 21 21 20 20 20 20 20 19 17 16 15 13 11 9 6 5 3 2 6 9 11 12 13 15 17 19 22 23 23 21 19 17 19 20
20 21 18 16 16 15 14 12 11 10 10 11 12 13 14 15 14 14 16 18 18 16 16 17 17 16 15 15 17 18 19 19 17 14 10 9 11 13 15 16 15 13 14 15 16 16 16 17 17 18 20 21 22 23
21 22 19 19 14 14 14 13 12 10 9 7 8 10 13 14 13 11 11 12 13 12 11 10 11 12 13 13 16 17 17 17 17 17 18 17 17 16 15 15 16 18 20 20 22 23 23 23 24 25 26 27 28 29
19 21 22 20 16 15 18 15 15 14 13 13 13 14 14 14 15 15 10 13 12 13 12 11 11 13 13 13 16 21 22 20 18 18 17 18 21 23 24 25 25 25 25 25 25 26 27 29 31 32 32 34 35 36
24 24 22 22 20 18 17 14 11 13 18 19 20 16 14 13 14 15 17 12 6 11 10 12 15 17 16 18 22 25 29 30 26 25 25 26 25 24 25 25 25 27 30 31 32 33 33 33 33 34 34 35 35 36
25 27 25 22 20 20 20 18 17 20 18 18 17 14 16 23 27 20 15 16 15 19 15 16 15 19 22 25 27 29 31 32 32 32 31 29 29 29 28 27 28 29 29 30 29 30 31 33 34 35 36 37 38 40
26 28 26 23 20 17 18 20 20 19 16 12 11 11 12 7 15 12 18 16 16 18 22 23 24 29 31 33 33 33 32 32 32 31 29 28 27 28 28 29 31 32 32 33 34 35 35 36 37 38 39 40 41 43
27 29 26 25 21 19 18 19 20 21 20 18 20 15 10 11 11 14 18 16 20 24 25 35 34 32 33 33 33 34 34 33 32 31 31 32 34 35 37 39 40 41 42 43 44 45 46 46 47 48 49 50 50 51
26 27 26 25 22 20 18 18 19 20 21 20 18 18 15 14 13 15 19 24 30 33 33 33 33 33 34 35 35 35 36 36 36 37 39 41 43 45 46 47 46 45 44 44 45 46 46 47 47 47 48 49 49 50
23 26 26 26 25 23 22 18 19 20 21 22 21 22 22 21 20 20 23 25 28 31 32 34 35 36 38 40 41 41 41 43 45 46 46 45 44 44 43 43 43 43 44 44 45 45 46 47 47 48 49 49 50 50

GFSWCAN_500_spd_165.txt.gz
Wind_Speed
54 50 51 47 49 49 50 47 44 42 42 41 39 22 16 15 16 15 15 18 23 24 25 29 35 39 41 41 40 39 48 48 55 63 71 72 76 76 63 72 72 73 70 65 63 62 59 52 50 46 34 31 24 23
52 50 53 49 45 47 52 46 52 52 42 41 41 33 19 10 9 6 9 12 16 20 22 25 28 35 39 41 42 43 43 45 49 52 56 71 63 53 52 55 72 68 74 68 68 62 60 52 53 46 48 35 27 25
54 52 51 48 44 42 45 48 46 52 43 37 38 36 26 11 4 6 10 10 11 12 13 20 25 29 33 36 37 36 37 40 46 53 52 51 52 60 64 71 44 70 66 70 66 67 64 58 49 47 43 28 31 29
46 51 50 48 45 35 41 42 45 47 42 38 34 33 29 23 10 6 10 11 13 17 15 15 20 23 26 29 31 32 34 38 44 50 53 54 55 57 56 70 64 47 54 66 71 68 60 62 56 45 34 31 31 27
44 45 46 48 49 44 34 36 39 38 35 38 36 30 29 27 21 16 8 2 6 6 10 16 18 19 19 21 23 25 29 32 36 46 56 53 55 60 60 54 68 63 57 52 50 51 64 62 54 53 41 34 34 27
40 41 41 43 47 45 39 37 34 30 28 34 33 34 30 24 21 19 15 12 9 6 5 7 7 9 12 15 17 19 23 27 33 40 52 56 51 58 56 63 57 63 62 56 50 55 69 68 69 46 51 41 34 32
37 37 39 42 43 40 38 38 34 32 27 31 31 27 25 23 22 21 18 14 11 9 7 5 6 7 10 12 13 14 17 22 27 33 41 55 52 63 61 59 52 67 72 71 49 70 64 61 65 65 49 46 41 39
34 34 37 38 39 37 34 38 35 33 28 26 26 29 34 25 22 20 19 18 14 9 10 6 4 3 8 10 12 13 16 17 21 27 35 51 60 52 68 54 57 47 53 58 67 60 56 60 60 58 54 49 44 41
33 31 32 35 36 35 32 33 32 33 31 25 28 25 24 26 26 26 23 20 18 12 10 10 7 6 5 9 7 8 14 18 20 24 31 43 56 58 39 55 60 59 56 54 39 46 54 52 49 49 47 46 45 43
38 29 28 32 35 33 31 31 28 30 27 31 33 30 28 28 25 23 20 16 15 16 14 15 10 7 13 14 13 9 11 5 6 16 30 38 44 45 44 44 47 50 54 53 48 42 50 51 46 42 42 43 43 42
41 31 28 30 31 31 33 32 29 24 27 32 31 33 32 34 37 35 33 31 20 18 17 12 9 7 2 3 9 5 2 2 1 14 25 34 37 39 38 45 46 44 45 52 50 45 41 36 34 34 36 39 39 39
41 34 30 29 30 31 32 32 32 27 23 27 29 29 32 31 33 38 37 37 29 17 9 7 9 10 8 3 0 4 6 2 2 6 18 20 23 33 40 41 49 49 47 46 48 46 45 45 45 42 39 36 36 37
40 35 33 32 30 29 29 30 32 26 26 24 18 25 32 33 31 29 29 29 31 19 15 16 17 15 10 9 8 4 3 5 5 5 5 11 22 26 27 33 46 49 48 49 53 53 46 42 42 41 41 40 40 43
35 35 35 33 30 28 27 27 28 33 28 15 15 21 26 26 27 24 24 27 26 19 18 24 21 23 17 17 11 11 8 8 8 7 12 2 2 22 35 49 44 46 49 47 52 51 50 45 44 43 43 41 41 41
28 29 33 35 34 35 30 24 25 31 26 22 25 25 21 21 20 23 24 26 27 22 20 29 24 23 21 18 24 25 25 25 25 18 24 14 21 28 39 39 47 53 51 48 49 51 52 50 46 44 43 43 41 40
26 26 28 29 32 37 33 30 30 24 31 37 32 23 24 21 21 21 23 23 23 24 31 32 33 33 32 33 30 28 29 29 28 32 29 25 23 28 27 40 46 44 49 49 50 48 50 49 48 48 47 46 45 42
22 25 25 27 28 32 34 31 21 28 30 33 32 29 25 23 23 23 25 20 21 24 27 35 33 31 31 28 26 26 24 19 17 17 24 25 24 19 20 32 42 44 42 50 45 41 42 43 43 46 48 47 43 35
23 25 22 25 29 31 26 22 19 23 35 34 26 25 28 27 25 25 27 26 23 26 23 25 28 27 29 23 22 25 19 19 18 17 16 20 21 16 10 16 21 21 26 32 39 29 27 31 23 28 29 23 23 28
25 24 21 23 25 25 22 22 25 25 29 28 32 32 28 26 26 26 26 30 30 26 19 17 21 24 27 26 21 20 19 15 13 16 16 16 17 12 15 13 10 15 19 15 16 15 17 17 10 15 19 21 21 23
23 21 20 19 21 20 16 19 19 21 22 25 27 29 32 35 29 24 24 25 21 17 23 27 29 27 24 21 20 17 16 15 15 15 15 14 12 9 10 8 6 7 7 10 12 15 17 16 15 15 18 22 24 25
23 23 19 17 18 18 15 14 17 19 20 24 24 25 29 29 27 24 22 21 18 22 24 23 22 21 20 19 18 18 17 14 11 10 10 9 7 6 4 4 5 5 4 5 6 7 8 11 13 15 18 21 22 22
22 24 17 15 16 14 11 11 13 14 15 18 19 21 21 20 20 18 18 16 19 21 20 20 21 21 21 21 18 16 16 15 14 12 10 7 5 3 3 4 4 5 7 8 12 12 12 16 18 21 21 21 23 24
22 24 21 18 15 13 11 10 9 8 9 10 12 14 14 14 13 13 9 14 16 14 16 17 18 19 18 18 19 18 18 17 15 13 12 11 10 10 10 9 9 9 10 10 14 16 16 16 17 18 21 22 22 22
24 22 19 19 14 14 13 13 10 8 6 6 7 8 9 10 9 8 8 7 7 8 8 8 7 8 9 10 11 12 13 15 16 16 14 12 10 10 12 14 16 17 17 17 18 20 21 21 21 23 23 24 26 27
26 23 21 21 18 16 14 14 13 12 12 11 11 10 10 9 8 7 7 6 5 4 4 4 6 7 8 8 10 12 14 16 17 17 19 22 25 25 23 22 19 20 21 20 21 23 24 23 24 23 24 23 24 26
25 23 23 23 21 17 14 14 13 14 14 12 12 11 13 11 8 9 9 8 8 7 5 5 6 7 9 12 14 16 17 19 22 24 28 30 32 33 32 28 25 26 28 26 26 27 28 29 29 27 27 29 27 27
22 23 23 24 23 20 17 17 17 17 16 16 15 15 12 10 14 14 13 15 8 7 8 10 12 13 13 14 18 21 22 24 27 33 35 33 32 32 32 31 29 30 32 30 33 34 33 34 33 33 34 35 36 36
23 23 24 23 23 21 18 16 15 14 15 16 15 13 11 19 22 19 18 18 24 15 15 19 21 20 20 23 25 29 32 36 36 36 35 34 30 29 31 33 32 31 34 32 31 34 34 35 37 38 39 38 39 39
26 26 26 26 24 20 17 17 17 16 17 17 16 13 13 18 15 9 12 17 20 22 21 23 27 29 32 35 39 42 40 37 36 34 34 34 35 35 35 35 35 35 35 37 36 35 36 38 37 38 39 40 41 44
27 27 28 29 25 21 20 18 17 14 15 16 14 13 12 13 14 13 13 14 16 20 25 30 33 36 37 37 37 38 37 35 34 35 37 37 38 38 39 39 40 40 40 41 42 43 41 45 46 47 47 48 50 49
28 29 31 30 26 21 21 20 16 13 13 15 15 16 15 15 16 17 18 18 20 22 26 29 31 33 35 36 37 38 40 40 40 38 37 37 36 36 36 37 36 37 38 39 41 42 43 44 46 48 49 50 51 50
29 29 29 28 26 22 20 19 14 14 15 16 16 17 20 20 21 25 27 29 30 31 33 35 36 37 39 41 41 39 37 35 34 35 36 38 40 41 40 38 39 40 39 39 39 40 40 42 44 45 46 47 47 48
29 28 27 27 24 20 18 18 18 18 19 19 19 20 19 23 30 31 31 29 31 34 37 38 39 39 39 39 38 37 37 37 36 36 38 39 39 39 39 39 40 41 41 42 42 42 42 41 42 42 42 42 44 45

GFSWCAN_500_spd_168.txt.gz
Wind_Speed
52 51 51 49 53 52 44 45 47 47 46 44 41 43 39 14 4 8 9 10 21 24 25 28 28 29 38 42 40 40 36 37 53 64 72 73 76 77 73 70 70 70 69 66 64 62 60 48 30 37 27 31 32 28
48 45 49 47 50 50 45 43 41 41 43 41 39 39 39 26 11 5 2 6 13 19 22 25 26 27 30 38 42 43 38 36 39 54 66 73 72 71 71 72 70 66 73 68 68 64 58 52 50 49 47 38 34 34
41 42 45 45 47 46 45 45 41 39 35 37 39 36 35 34 26 8 4 6 7 11 14 19 23 27 29 33 40 41 41 38 35 43 49 64 76 73 80 75 72 71 62 66 63 69 63 60 56 49 53 51 45 28
40 39 42 45 45 43 43 44 41 37 32 32 31 33 33 30 28 24 11 6 7 12 16 17 21 22 26 27 34 38 41 43 43 39 44 53 61 72 65 79 80 71 69 58 66 63 56 60 58 54 55 51 47 36
41 36 38 42 43 40 40 42 43 37 35 35 38 38 29 28 26 24 20 16 8 5 5 6 7 13 15 17 23 30 36 40 39 38 37 45 50 61 68 70 74 62 55 66 50 52 64 66 60 60 52 51 43 41
44 36 35 37 40 37 37 37 40 40 37 35 29 36 35 31 27 24 20 18 17 11 9 6 5 4 5 9 14 20 26 32 36 36 38 45 50 57 69 74 67 65 52 54 66 69 70 66 70 62 55 49 40 40
44 38 35 35 37 34 37 34 35 38 40 35 28 26 28 27 30 26 21 18 20 14 11 9 6 4 4 4 5 9 14 20 26 30 34 40 52 59 68 76 67 70 68 54 66 71 75 71 61 63 60 48 50 44
43 38 35 33 34 35 35 34 30 33 37 42 31 30 27 23 22 24 23 21 17 16 13 12 8 3 1 4 6 9 10 13 15 21 28 34 43 60 67 65 68 69 70 61 60 69 63 68 61 58 57 57 50 49
42 39 35 35 33 33 35 34 24 28 35 37 34 31 33 35 30 22 17 20 19 17 14 15 10 8 3 0 5 9 10 13 15 17 22 32 39 55 54 63 61 76 72 71 63 67 62 58 54 55 55 51 53 55
38 38 37 35 33 32 34 35 29 27 28 34 37 29 29 33 39 43 31 30 24 19 16 21 7 5 8 8 6 4 7 5 4 9 19 26 31 32 46 74 72 71 79 74 66 64 62 50 44 37 45 45 51 52
36 40 39 37 33 32 33 34 27 26 26 30 30 32 29 33 33 34 42 45 43 34 21 21 17 14 7 7 2 4 2 6 5 2 8 10 11 24 50 67 75 70 60 75 69 56 51 49 45 39 37 41 42 45
33 37 40 38 35 29 29 29 28 21 21 24 28 29 28 27 36 35 35 35 35 39 34 26 20 13 11 7 4 7 10 11 9 9 9 8 3 14 45 56 67 74 74 60 61 63 55 55 57 50 47 53 58 52
30 33 36 36 34 28 27 32 32 31 28 27 20 20 28 31 29 37 30 28 26 25 31 25 20 17 14 12 11 10 15 15 10 9 13 3 7 7 28 53 48 49 72 61 62 74 42 38 33 34 41 57 51 38
28 31 30 31 30 27 28 32 35 30 19 13 20 31 33 33 34 34 32 30 26 21 28 16 17 22 21 20 17 16 17 13 10 9 10 4 9 9 22 32 47 57 61 58 49 45 41 34 38 57 50 38 33 34
27 29 30 28 27 25 24 35 36 26 22 31 39 34 32 32 31 32 30 24 19 21 28 29 30 32 34 33 29 25 23 26 21 23 10 5 5 3 11 20 34 51 57 59 57 54 55 52 40 32 32 31 35 37
25 26 25 24 23 27 32 33 30 18 30 39 34 26 29 29 30 28 28 28 23 29 31 34 36 35 35 34 34 34 32 33 33 33 31 18 28 5 9 15 23 31 45 56 57 51 46 51 44 37 39 39 40 42
25 24 23 23 24 27 28 26 26 25 25 25 27 25 29 31 31 31 29 31 26 24 23 23 27 30 31 34 29 31 28 22 27 28 31 33 21 17 14 13 24 35 40 55 45 42 49 53 46 44 40 44 38 36
23 23 21 21 20 22 24 25 23 24 28 22 19 24 26 30 30 30 33 35 30 22 22 26 28 26 30 31 30 22 22 27 21 27 27 30 31 23 11 16 34 33 32 34 23 35 47 49 45 37 44 47 45 46
23 21 20 18 18 18 22 21 20 20 23 25 26 26 29 29 27 23 24 25 26 26 21 23 33 33 31 28 25 24 23 22 22 23 24 23 27 28 26 19 20 31 31 23 28 35 37 41 43 46 41 36 49 49
23 24 17 17 15 14 15 16 13 16 18 20 23 22 21 22 23 24 23 22 23 20 23 29 26 25 26 25 24 23 21 21 20 19 19 20 21 20 17 22 17 11 17 36 35 20 23 25 23 23 22 19 13 15
22 23 19 15 13 11 12 12 10 11 13 14 17 18 20 20 19 18 19 20 17 19 21 22 22 21 20 21 21 21 23 23 21 22 20 18 18 15 15 16 17 16 15 12 7 6 3 2 2 4 10 14 19 23
22 22 19 18 12 11 10 10 10 9 7 8 11 13 14 14 14 15 17 13 11 16 17 19 20 21 20 21 22 23 23 21 20 20 19 20 19 18 17 14 11 9 7 7 6 4 5 7 9 13 16 17 18 19
25 22 21 19 15 15 12 11 10 9 9 10 10 12 12 12 11 11 10 8 7 7 9 11 11 11 11 12 14 17 17 18 17 16 18 18 18 18 18 15 14 12 10 9 11 14 14 13 15 18 18 21 22 21
25 22 22 21 19 16 13 8 13 12 11 11 11 13 13 13 13 12 11 11 9 7 5 6 7 8 8 8 9 11 13 14 13 13 14 16 18 20 19 19 21 21 19 19 19 19 19 19 18 19 20 23 25 24
25 23 23 23 22 17 13 13 18 16 20 13 12 13 18 10 14 14 15 14 12 13 12 12 11 11 12 10 10 12 15 17 19 19 21 23 23 25 26 28 27 28 25 23 24 25 26 24 24 26 26 23 24 26
23 24 24 23 23 21 17 14 12 13 13 14 17 19 17 13 12 15 15 15 14 18 17 15 13 13 14 14 16 19 21 23 26 27 28 28 33 38 36 33 29 26 26 24 25 27 28 31 32 30 31 32 31 30
26 27 17 16 29 22 18 15 15 15 15 16 16 17 17 16 15 18 20 16 16 18 18 18 19 21 23 25 26 26 28 32 35 40 44 45 44 37 36 35 30 30 31 30 29 30 30 31 33 35 36 37 39 37
26 26 26 26 21 14 20 17 16 15 13 13 15 17 16 15 12 17 16 19 21 22 20 21 24 27 27 27 32 36 36 41 44 44 45 47 46 39 36 39 39 36 36 35 35 36 37 37 36 36 36 37 39 41
27 32 31 29 26 22 15 17 16 13 11 14 16 17 15 14 12 12 11 12 13 13 16 20 24 28 32 36 38 40 40 37 38 37 37 39 41 41 41 40 41 41 41 42 42 41 39 41 41 42 43 44 44 44
19 31 33 27 16 24 20 18 15 13 12 13 13 13 14 14 15 17 21 23 23 23 25 27 28 30 33 35 37 40 41 38 39 38 38 37 36 35 35 36 36 37 37 38 40 43 41 39 43 45 45 45 47 46
10 37 32 26 21 19 19 17 12 13 14 14 14 14 14 15 17 23 29 28 28 27 30 34 37 38 39 39 39 39 40 38 37 37 37 37 37 37 37 37 38 39 39 40 41 42 43 43 42 44 44 44 44 45
25 28 28 26 19 17 17 16 14 11 12 16 18 19 19 21 26 31 29 30 34 37 38 38 39 40 40 39 39 39 39 39 40 40 40 40 39 40 40 40 40 40 40 41 42 41 41 42 43 43 45 45 45 46
26 26 25 22 21 19 17 19 19 16 18 20 20 18 20 31 32 33 36 36 36 38 39 39 37 38 38 39 39 41 42 41 40 37 36 35 35 36 36 37 37 37 37 37 36 36 37 36 36 37 37 37 38 40

GFSWCAN_500_spd_171.txt.gz
Wind_Speed
52 45 40 40 44 47 45 47 50 48 47 47 50 43 38 42 31 11 9 4 12 20 24 24 26 29 37 41 39 45 49 62 63 60 63 78 85 79 88 85 74 65 63 65 60 55 56 49 39 38 33 28 31 33
53 46 40 39 41 44 41 44 47 50 47 47 46 46 42 35 35 26 10 6 7 15 22 23 24 25 25 34 45 40 41 42 48 61 70 68 80 80 82 87 84 73 68 60 67 60 60 48 50 50 45 42 37 38
53 46 39 37 38 39 40 41 44 48 48 45 41 41 44 37 32 28 19 10 7 6 10 17 22 26 27 27 36 41 38 39 38 42 57 68 74 78 76 78 85 85 79 75 67 65 64 59 55 55 53 50 43 44
51 45 39 37 37 36 39 39 40 44 48 43 40 36 35 40 33 27 22 16 11 7 9 15 18 19 23 26 27 37 40 43 42 42 44 52 67 75 79 79 78 84 84 83 76 71 69 65 60 60 60 57 54 50
48 43 41 37 36 36 38 33 34 40 44 39 39 34 29 30 31 30 26 21 18 14 10 9 6 4 13 19 24 28 40 46 44 45 43 40 44 64 76 80 77 81 83 83 85 81 77 71 66 63 59 58 55 56
44 43 42 40 36 37 37 31 32 37 40 38 35 35 31 27 26 28 27 24 24 18 15 13 12 8 7 5 6 15 27 40 44 43 38 39 38 53 68 78 78 80 84 86 84 83 80 76 72 69 63 62 57 57
42 45 42 40 39 36 38 32 31 33 38 40 36 35 36 34 28 24 23 22 18 18 15 13 14 12 8 7 6 5 12 25 35 37 38 39 41 50 62 75 70 78 82 82 83 83 77 74 73 72 67 67 61 60
40 44 45 44 38 34 35 31 29 28 32 37 42 37 31 39 37 31 25 20 19 16 18 15 14 14 11 7 4 4 7 10 15 23 30 33 39 49 62 67 70 74 76 79 82 82 78 76 70 65 67 58 58 61
39 38 45 46 39 33 33 32 27 25 29 33 36 36 38 34 36 42 41 27 22 21 20 20 14 12 8 7 6 5 4 7 13 13 18 28 34 51 52 51 62 70 73 71 75 77 75 73 72 71 62 58 58 63
37 37 39 41 36 33 37 34 28 27 25 29 34 30 27 36 29 33 46 46 40 30 31 23 23 15 11 6 2 3 2 3 3 8 11 10 11 20 38 47 57 72 73 65 69 68 67 65 67 61 55 57 57 58
32 34 37 37 35 33 38 37 33 31 34 37 33 31 34 31 32 38 45 35 39 39 38 30 23 18 17 11 8 8 8 11 12 7 9 2 7 19 32 50 57 76 76 78 75 70 65 61 57 55 56 52 52 54
31 33 36 35 33 30 38 34 34 36 34 31 30 27 33 35 35 41 55 42 34 40 30 26 23 22 20 17 16 15 16 17 17 13 14 4 4 7 24 38 52 74 77 76 70 72 55 51 50 52 52 53 54 54
30 30 33 32 30 29 34 32 31 29 30 27 28 35 41 37 40 42 45 36 34 29 31 28 28 28 28 26 22 22 22 23 23 23 15 7 11 13 15 21 37 67 82 81 77 75 64 53 52 53 53 52 50 43
29 29 31 32 29 29 30 36 30 35 30 30 33 39 39 37 38 34 30 29 32 36 38 35 38 39 42 37 32 29 28 26 31 27 18 16 11 9 8 15 23 50 76 80 77 75 60 54 57 55 52 51 47 45
29 27 27 27 27 27 29 33 31 21 26 32 35 34 32 33 30 27 24 27 28 32 34 37 40 42 39 41 43 36 34 39 42 40 20 18 8 15 7 2 19 36 60 73 77 77 57 64 54 52 50 52 54 52
27 25 24 24 24 27 27 29 31 22 28 28 32 28 31 31 31 24 26 22 24 27 27 36 38 40 36 38 38 40 37 37 45 51 34 22 8 19 16 9 6 25 39 49 62 68 75 52 60 45 43 50 55 46
26 24 21 21 22 23 24 25 24 26 29 31 25 25 26 26 30 29 26 27 28 23 26 30 40 39 38 34 36 37 37 31 39 42 44 38 15 8 19 16 13 9 28 50 51 50 52 51 41 39 39 39 38 44
24 25 20 18 19 19 19 19 21 22 22 22 23 21 21 22 24 25 29 27 24 28 28 32 36 38 39 37 35 33 32 31 35 36 41 43 43 33 9 11 6 4 8 38 44 57 56 53 48 40 36 41 50 37
23 23 21 17 15 16 16 16 17 18 21 22 22 21 21 23 25 25 23 20 21 22 21 25 35 35 30 31 32 31 33 33 31 34 36 37 33 43 41 29 16 12 17 25 42 43 42 49 55 36 41 38 35 40
24 22 20 18 14 13 12 12 14 14 14 16 18 19 21 22 23 22 20 20 21 16 14 20 25 25 23 26 26 26 27 27 27 27 28 28 28 33 32 34 32 27 22 19 31 36 36 33 41 39 38 34 36 41
25 22 20 18 16 13 12 10 10 10 10 11 13 15 17 17 17 19 19 20 20 17 20 24 22 21 23 24 25 25 27 27 28 29 30 29 30 30 26 29 30 25 24 18 14 18 19 17 30 33 41 52 36 34
24 22 20 19 16 14 13 12 11 11 11 12 14 15 15 16 15 14 14 15 15 12 14 15 17 18 17 16 17 19 19 19 20 22 23 24 24 24 24 25 23 20 18 17 13 11 11 9 2 13 16 25 20 8
23 25 24 20 17 17 19 19 13 19 7 13 15 16 16 17 15 15 14 11 11 10 10 11 12 14 15 17 18 17 15 15 14 17 19 19 19 22 23 23 20 20 21 20 17 13 12 9 10 11 10 12 13 13
25 29 28 24 22 18 20 24 23 22 26 6 7 9 10 19 14 12 12 12 15 15 14 15 17 18 17 17 17 17 16 15 17 19 18 17 16 18 19 25 28 26 24 26 24 20 19 17 18 18 16 19 21 21
25 27 34 17 22 21 16 16 17 16 14 12 13 16 20 17 15 11 9 16 17 17 15 19 21 20 20 20 19 17 19 21 25 26 23 23 28 30 29 29 32 31 29 26 24 24 24 25 23 24 25 23 27 27
22 28 29 32 24 20 29 20 15 15 18 19 19 20 20 19 17 17 15 16 16 17 19 22 26 25 24 26 27 26 27 30 33 33 33 34 34 37 37 33 33 34 28 25 26 25 25 27 28 30 31 31 29 32
17 23 34 33 28 27 19 14 17 18 18 15 15 18 16 12 13 15 12 13 15 15 20 27 29 27 26 27 29 31 31 34 39 43 46 46 42 37 37 35 34 33 34 33 31 30 31 32 33 33 34 37 37 35
8 24 20 31 24 23 20 18 18 16 12 10 13 15 15 12 12 15 17 17 17 17 19 21 23 25 29 31 34 35 34 37 38 43 47 47 45 41 40 38 37 36 35 34 34 36 37 37 37 38 40 41 42 42
23 21 33 25 23 19 17 18 16 13 12 13 13 14 15 15 16 18 20 25 26 25 27 27 27 29 32 34 37 38 35 34 35 36 36 38 38 38 38 37 36 35 35 34 34 34 33 34 35 37 40 43 44 47
30 30 31 24 17 21 21 20 16 16 15 14 14 14 16 16 17 22 28 29 28 29 31 34 35 37 39 40 40 41 41 36 36 40 40 39 38 39 40 39 39 38 38 39 39 39 37 36 38 39 40 41 41 44
28 29 32 27 20 17 17 16 14 14 11 15 16 17 17 17 18 28 31 32 35 36 35 35 36 36 38 38 39 40 41 39 39 39 40 41 41 42 41 40 39 39 38 40 40 40 41 41 40 40 41 42 42 42
27 28 30 27 20 18 17 17 16 14 13 15 16 20 18 22 28 30 32 34 35 37 38 39 39 37 36 40 43 42 41 40 40 40 39 39 38 37 34 32 32 32 33 33 35 36 37 37 36 35 35 36 38 40
24 25 26 27 26 22 19 17 16 18 18 15 17 22 26 28 30 33 36 36 35 39 41 39 39 41 41 40 41 42 41 41 38 37 35 35 35 35 34 33 30 28 30 32 31 30 30 30 29 29 29 27 27 28

GFSWCAN_500_spd_174.txt.gz
Wind_Speed
47 47 48 43 40 39 39 41 39 42 44 45 49 48 43 44 41 36 28 18 5 13 15 18 21 25 31 36 32 48 58 47 60 78 88 89 90 84 79 76 72 74 74 69 64 59 56 53 48 47 46 53 50 47
45 46 47 43 40 39 40 40 38 41 43 40 44 47 41 38 40 36 29 23 12 10 19 19 23 24 26 30 35 40 49 58 53 62 78 92 89 86 82 79 75 71 76 78 71 63 62 56 49 48 47 54 58 52
42 46 47 46 42 39 40 39 38 38 42 38 39 38 42 38 35 35 32 25 20 14 5 14 27 26 28 28 34 39 42 47 59 56 61 77 92 89 87 80 80 74 74 79 75 70 65 62 54 52 52 51 49 48
41 43 46 50 44 39 38 38 35 35 38 43 36 42 37 34 31 30 31 28 23 16 12 10 7 18 24 27 30 35 45 50 56 57 58 64 74 94 90 87 78 80 76 78 79 72 68 65 62 57 56 54 52 50
40 42 45 49 46 38 36 37 34 34 39 41 38 38 41 37 32 28 27 25 22 18 14 11 10 7 13 27 29 34 42 52 53 56 63 62 64 74 92 92 84 79 81 79 79 78 73 68 66 60 60 63 60 57
38 40 43 44 41 37 36 36 34 33 39 41 36 39 37 41 35 33 26 24 20 15 12 13 13 13 9 1 18 26 36 45 52 52 51 60 63 70 75 93 89 86 85 83 79 79 79 73 69 67 61 61 61 59
35 38 41 40 35 38 39 37 34 34 34 37 37 33 35 41 46 39 34 26 22 18 18 14 14 12 11 10 7 2 15 33 44 50 51 47 50 63 76 84 88 88 92 89 83 80 78 79 74 69 65 62 62 61
34 37 38 39 35 37 40 35 32 30 33 34 35 34 33 44 50 43 41 36 29 21 21 18 15 14 12 10 10 8 5 2 13 29 41 44 44 54 69 79 79 84 91 91 81 89 79 79 80 76 69 65 66 65
35 36 37 37 35 37 39 33 25 29 37 35 33 30 30 43 42 42 50 38 41 31 23 24 18 16 16 13 12 9 7 4 2 3 13 29 39 52 57 55 63 78 86 90 86 89 86 85 84 82 77 70 64 63
35 35 36 35 34 35 33 33 35 33 32 35 32 28 31 39 43 41 42 39 33 29 33 27 24 21 17 16 14 12 14 10 3 3 4 3 9 19 34 51 58 70 84 88 90 91 86 84 85 82 79 74 71 69
34 33 34 33 32 33 24 31 33 32 30 30 24 27 30 38 41 42 46 44 41 37 32 29 29 26 25 21 20 19 18 17 13 9 5 4 9 24 39 52 57 68 77 83 88 88 88 86 85 81 78 75 72 69
33 31 31 31 32 32 35 28 32 32 28 27 20 26 32 35 39 38 42 43 40 39 43 41 38 36 34 32 28 26 24 23 23 17 11 6 14 16 22 36 46 66 75 77 83 86 86 84 81 78 75 71 72 70
31 29 29 29 32 31 33 30 33 33 27 24 24 29 36 36 32 32 35 35 34 35 33 40 42 42 41 39 36 36 34 34 33 30 21 13 15 19 20 18 28 48 70 73 75 78 80 82 78 73 71 70 70 68
28 28 27 27 29 31 26 30 31 27 23 18 31 36 38 36 30 30 30 32 31 31 32 38 45 44 41 46 45 45 46 40 35 31 28 15 15 8 9 16 16 23 53 66 73 74 73 69 67 66 63 59 63 59
26 27 25 24 25 27 26 30 28 25 19 23 33 35 33 28 26 29 26 24 31 32 31 39 50 51 48 50 50 54 56 61 51 35 26 18 30 28 16 7 10 12 31 53 64 71 72 67 56 49 52 56 54 50
23 26 24 22 21 22 21 25 28 23 20 22 27 25 26 25 28 29 28 28 31 29 27 35 42 48 46 49 43 43 42 41 46 59 37 16 25 33 30 22 10 4 12 24 41 64 71 60 61 56 49 49 46 46
24 25 25 21 18 18 18 19 21 21 23 29 28 26 25 23 23 23 24 27 28 29 28 31 39 41 41 43 44 37 43 39 43 40 53 56 25 19 24 18 19 13 10 12 29 52 58 64 57 47 47 41 48 50
24 25 24 22 18 16 16 15 15 16 18 20 20 21 23 23 22 21 23 24 23 22 22 22 24 32 32 34 29 38 31 30 35 38 43 46 52 42 27 15 28 29 19 9 12 32 53 59 51 41 39 51 44 49
24 22 23 21 20 17 16 15 14 13 13 13 15 18 18 19 20 21 20 19 19 19 18 20 28 31 29 27 27 27 29 31 34 34 27 37 38 35 46 42 24 14 9 15 9 9 36 48 52 40 38 43 42 42
23 23 23 21 20 19 19 21 19 18 17 15 13 13 16 17 16 17 17 16 17 15 12 20 26 27 25 24 23 24 24 26 27 29 33 35 35 27 30 35 39 38 15 17 17 1 18 34 52 45 38 31 35 43
22 25 27 24 21 18 18 18 19 20 19 20 17 15 15 14 15 16 15 14 12 11 9 14 18 18 19 20 21 21 21 21 22 25 27 26 28 29 32 33 33 31 31 33 7 25 16 17 19 34 34 43 51 43
21 24 28 26 21 19 18 18 18 19 14 21 14 12 17 18 16 14 13 13 13 15 15 16 17 18 18 18 18 19 19 18 19 21 22 24 23 22 23 28 31 32 31 25 20 18 11 6 22 29 38 40 43 50
20 23 27 27 23 23 27 20 18 15 19 6 5 9 7 10 14 17 13 9 11 14 16 15 17 19 19 19 20 18 17 17 18 19 20 21 21 22 23 25 27 28 28 27 22 18 10 5 3 9 7 7 9 12
20 21 26 31 27 14 24 19 14 12 12 12 12 13 15 16 11 7 12 10 12 14 15 15 15 17 18 19 22 27 28 26 23 25 26 26 28 27 27 28 28 27 26 26 26 24 19 16 15 15 16 11 13 16
21 19 19 26 25 14 19 16 18 13 11 11 12 15 17 18 13 15 11 12 14 16 17 19 20 22 22 23 22 24 29 29 28 29 30 29 27 29 32 30 29 32 32 29 26 26 27 25 23 21 20 21 24 26
25 20 19 18 27 14 19 20 19 19 18 15 13 15 16 13 13 13 12 12 14 16 17 19 21 23 24 24 25 26 30 32 31 32 33 34 34 32 32 34 34 32 32 32 28 27 28 30 31 29 28 28 29 26
29 26 26 33 28 23 22 19 18 17 15 12 13 15 15 13 11 12 14 16 18 18 17 19 22 25 25 26 28 31 34 38 36 34 36 36 35 33 32 31 28 28 30 32 33 33 33 34 36 37 37 36 37 35
24 27 28 30 25 16 19 18 13 11 13 13 13 14 14 15 15 14 18 26 26 26 26 27 28 30 31 29 29 29 33 37 39 38 37 37 37 37 36 33 32 31 29 27 27 31 35 37 39 39 40 41 42 43
30 29 30 29 22 15 16 15 15 15 14 14 15 15 16 17 17 19 23 32 32 30 30 33 35 37 38 39 34 30 30 33 36 38 39 40 40 41 40 39 38 36 35 33 32 31 31 34 36 38 38 41 43 44
28 27 26 26 25 22 20 20 19 16 14 13 16 15 17 17 20 25 29 32 33 34 33 33 33 34 36 39 36 34 34 34 36 38 38 38 37 36 35 34 34 36 36 36 35 33 31 33 35 38 41 44 44 45
25 27 27 27 27 23 20 21 20 18 17 15 16 17 20 21 23 26 30 32 34 35 35 35 35 34 35 38 39 39 38 37 38 41 42 42 41 37 35 34 34 33 32 30 31 31 31 29 29 30 33 36 39 43
24 25 27 26 24 24 24 23 21 18 16 16 19 20 24 26 24 26 29 32 34 37 39 39 40 40 40 43 42 42 41 40 39 40 40 40 39 37 35 33 34 33 30 27 25 24 24 26 27 28 29 29 30 31
25 26 27 27 25 24 25 26 26 24 19 17 16 22 23 26 28 30 30 30 34 39 40 41 42 43 44 47 46 45 42 40 39 37 37 37 36 34 33 33 31 28 25 24 23 22 22 20 18 16 15 15 16 18